Location: Unspecified
(0.0000°N, 0.0000°E)
Time: 02:36:23
(UTC+00:00)

Vanguard 3 - All Passes

Search period start: 26 July 2016 00:00
Search period end: 05 August 2016 00:00
Orbit: 509 x 3266 km, 33.4° (Epoch: 24 July)

Date Brightness Start Highest point End Pass type
(mag) Time Alt. Az. Time Alt. Az. Time Alt. Az.
26 Jul - 00:34:18 10° NNW 00:47:02 20° NNE 00:59:07 10° NE visible
26 Jul - 02:51:04 10° NW 03:08:04 37° NNE 03:20:09 10° E visible
26 Jul - 05:08:03 10° NW 05:24:50 86° NE 05:34:13 10° SE visible
26 Jul - 07:28:44 10° W 07:37:44 25° SW 07:43:40 10° SSE daylight
26 Jul - 16:29:17 10° SW 16:34:42 50° SE 16:44:03 10° ENE daylight
26 Jul - 18:40:30 10° W 18:48:03 43° NNW 19:01:00 10° NE visible
26 Jul - 20:56:52 10° WNW 21:05:44 21° NNW 21:17:30 10° NNE visible
26 Jul - 23:17:26 10° NNW 23:27:57 17° N 23:39:15 10° NE visible
27 Jul - 01:34:49 10° NNW 01:50:34 28° NNE 02:03:40 10° ENE visible
27 Jul - 03:51:05 10° NW 04:09:20 60° NNE 04:20:40 10° ESE visible
27 Jul - 06:09:46 10° WNW 06:23:59 51° SW 06:32:08 10° SE daylight
27 Jul - 15:18:07 10° S 15:21:44 20° SE 15:26:37 10° E daylight
27 Jul - 17:27:13 10° WSW 17:33:26 68° NNW 17:44:47 10° NE daylight
27 Jul - 19:41:06 10° WNW 19:49:00 25° NNW 20:00:41 10° NNE visible
27 Jul - 22:00:24 10° NW 22:09:07 16° N 22:19:22 10° NNE visible
28 Jul - 00:18:48 10° NNW 00:32:12 22° NNE 00:45:10 10° ENE visible
28 Jul - 02:34:38 10° NW 02:52:48 43° NNE 03:05:55 10° E visible
28 Jul - 04:51:49 10° NW 05:09:27 83° SW 05:19:36 10° SE visible
28 Jul - 07:13:42 10° W 07:22:38 23° SW 07:28:46 10° S daylight
28 Jul - 16:14:45 10° SW 16:19:49 63° SE 16:28:35 10° ENE daylight
28 Jul - 18:26:34 10° W 18:33:21 34° NNW 18:44:30 10° NE visible
28 Jul - 20:43:38 10° NW 20:51:10 17° N 21:00:51 10° NNE visible
28 Jul - 23:02:53 10° NNW 23:13:21 17° N 23:24:42 10° NE visible
29 Jul - 01:18:42 10° NNW 01:35:23 32° NNE 01:49:34 10° E visible
29 Jul - 03:34:41 10° NW 03:53:54 69° NE 04:06:07 10° ESE visible
29 Jul - 05:54:01 10° WNW 06:08:37 45° SW 06:17:21 10° SSE daylight
29 Jul - 15:03:13 10° SSW 15:06:53 24° SE 15:11:59 10° E daylight
29 Jul - 17:13:01 10° WSW 17:18:43 51° NNW 17:28:42 10° NE daylight
29 Jul - 19:27:42 10° WNW 19:34:26 20° NNW 19:43:52 10° NNE visible
29 Jul - 21:46:54 10° NNW 21:54:37 15° N 22:03:38 10° NNE visible
30 Jul - 00:03:13 10° NNW 00:17:14 24° NNE 00:31:06 10° ENE visible
30 Jul - 02:18:19 10° NW 02:37:20 50° NNE 02:51:28 10° ESE visible
30 Jul - 04:35:39 10° WNW 04:53:55 73° SW 05:04:52 10° SE visible
30 Jul - 06:58:46 10° W 07:07:32 20° SW 07:13:46 10° S daylight
30 Jul - 16:00:19 10° SW 16:05:02 83° SE 16:13:05 10° NE daylight
30 Jul - 18:12:52 10° WNW 18:18:49 26° NNW 18:27:56 10° NNE visible
30 Jul - 20:30:44 10° NNW 20:36:44 14° N 20:44:05 10° NNE visible
30 Jul - 22:48:08 10° NNW 22:58:39 18° NNE 23:10:18 10° NE visible
31 Jul - 01:02:38 10° NNW 01:20:00 36° NNE 01:35:14 10° E visible
31 Jul - 03:18:24 10° NW 03:38:16 79° NE 03:51:25 10° ESE visible
31 Jul - 05:38:21 10° WNW 05:53:12 39° SW 06:02:28 10° SSE visible
31 Jul - 14:48:25 10° SSW 14:52:06 30° SE 14:57:16 10° ENE daylight
31 Jul - 16:59:01 10° W 17:04:08 38° NNW 17:12:36 10° NE daylight
31 Jul - 19:14:43 10° NW 19:20:00 15° N 19:26:50 10° NNE visible
31 Jul - 21:33:18 10° NNW 21:40:10 14° N 21:48:08 10° NE visible
31 Jul - 23:47:37 10° NNW 00:02:05 26° NNE 00:16:52 10° ENE visible
01 Aug - 02:02:06 10° NW 02:21:41 57° NNE 02:36:49 10° ESE visible
01 Aug - 04:19:37 10° WNW 04:38:17 65° SW 04:50:00 10° SE visible
01 Aug - 06:43:58 10° WSW 06:52:28 18° SW 06:58:44 10° S daylight
01 Aug - 15:45:59 10° WSW 15:50:23 72° NNW 15:57:35 10° NE daylight
01 Aug - 17:59:29 10° WNW 18:04:22 19° NNW 18:11:14 10° NNE daylight
01 Aug - 20:18:21 10° NNW 20:22:23 12° N 20:27:00 10° NNE visible
01 Aug - 22:33:12 10° NNW 22:43:51 19° NNE 22:55:57 10° ENE visible
02 Aug - 00:46:39 10° NW 01:04:26 41° NNE 01:20:41 10° E visible
02 Aug - 03:02:14 10° NW 03:22:28 88° NE 03:36:33 10° SE visible
02 Aug - 05:22:49 10° W 05:37:44 35° SW 05:47:31 10° SSE visible
02 Aug - 14:33:42 10° SSW 14:37:23 41° SE 14:42:28 10° ENE daylight
02 Aug - 16:45:12 10° W 16:49:40 27° NNW 16:56:27 10° NNE daylight
02 Aug - 19:02:38 10° NNW 19:05:40 12° N 19:09:10 10° N visible
02 Aug - 21:19:28 10° NNW 21:25:42 13° NNE 21:32:53 10° NE visible
02 Aug - 23:32:00 10° NNW 23:46:47 29° NNE 00:02:27 10° E visible
03 Aug - 01:46:00 10° NW 02:05:51 65° NE 02:21:59 10° ESE visible
03 Aug - 04:03:43 10° WNW 04:22:32 58° SW 04:35:00 10° SE visible
03 Aug - 06:29:18 10° WSW 06:37:26 17° SW 06:43:39 10° S daylight
03 Aug - 13:22:44 10° S 13:24:31 13° SE 13:26:24 10° ESE daylight
03 Aug - 15:31:46 10° WSW 15:35:50 49° NNW 15:42:02 10° NE daylight
03 Aug - 17:46:42 10° NW 17:50:02 13° NNW 17:54:09 10° NNE daylight
03 Aug - 22:18:07 10° NNW 22:28:57 20° NNE 22:41:34 10° ENE visible
04 Aug - 00:30:46 10° NW 00:48:43 46° NNE 01:05:55 10° E visible
04 Aug - 02:46:13 10° NW 03:06:33 83° SW 03:21:33 10° SE visible
04 Aug - 05:07:26 10° W 05:22:16 32° SW 05:32:29 10° SSE visible
04 Aug - 14:19:04 10° SW 14:22:45 61° SE 14:27:38 10° ENE daylight
04 Aug - 16:31:42 10° WNW 16:35:18 18° NNW 16:40:09 10° NNE daylight
04 Aug - 21:05:20 10° N 21:11:11 13° NNE 21:17:57 10° NE visible
04 Aug - 23:16:26 10° NNW 23:31:20 32° NNE 23:47:50 10° E visible
